Theta_e
305 304 304 303 304 304 303 304 303 305 306 304 304 306 308 309 309 314 317 312 313 317 328 334 331 333 348 354 354 351 359 364 359 356 354 351 356 356 355 356 355 353 353 349 348
306 304 302 302 303 303 303 303 307 307 304 303 305 306 307 310 315 317 314 315 315 317 320 329 330 330 342 354 354 357 360 357 354 351 351 350 353 355 358 357 357 356 351 349 348
302 301 300 301 301 301 301 304 306 303 303 305 307 307 307 310 321 321 322 316 316 317 318 319 329 329 339 346 351 353 358 350 351 349 348 349 350 350 358 360 356 356 353 351 349
301 301 301 300 300 300 301 302 302 303 303 312 316 312 310 316 322 321 319 321 316 318 320 319 324 331 339 347 348 352 351 350 349 347 348 348 348 348 358 357 353 352 351 350 350
302 301 301 300 300 300 302 303 305 306 306 316 319 315 314 319 319 321 322 320 320 318 319 320 324 332 337 346 347 348 352 350 348 345 346 346 348 355 358 354 352 350 350 350 350
302 302 301 301 300 301 304 307 308 308 308 316 321 317 316 320 322 323 328 322 323 319 319 320 326 330 338 345 347 345 347 350 348 347 347 347 348 348 357 353 353 352 350 349 349
302 302 302 301 301 302 307 308 309 309 310 317 321 317 318 315 323 325 327 323 322 319 318 321 325 327 335 339 344 345 347 351 350 347 347 346 348 347 356 354 354 353 351 350 349
302 302 302 301 301 303 308 310 310 311 311 319 320 319 320 319 323 322 324 327 321 321 319 321 325 324 327 335 341 344 344 347 348 346 345 346 353 351 351 355 355 354 352 351 350
302 302 302 301 301 303 308 310 312 312 313 318 321 321 323 325 325 325 324 324 325 324 323 323 323 323 325 334 339 341 346 343 345 344 344 337 339 350 349 353 355 354 353 352 351
302 302 302 301 301 303 307 310 311 320 322 321 322 323 323 323 326 327 324 324 323 324 325 325 325 324 325 330 338 343 342 341 343 345 343 340 335 351 350 354 355 354 353 352 351
302 302 302 302 302 307 307 309 308 316 311 308 310 315 313 324 322 327 326 325 322 324 328 328 327 327 326 328 332 340 343 339 338 341 341 341 335 352 354 355 356 353 353 353 351
302 302 303 302 303 308 311 308 307 308 307 309 310 311 312 314 317 321 326 325 320 326 328 330 331 328 327 328 329 336 341 340 335 336 337 339 337 337 352 354 352 353 353 352 351
303 303 303 303 305 310 310 308 308 308 307 309 309 311 311 312 314 317 321 324 321 326 330 332 333 332 332 329 329 333 337 339 338 334 334 337 338 338 350 348 350 354 357 355 350
303 303 303 304 308 308 312 309 307 308 308 312 313 314 314 313 315 318 320 323 324 325 331 333 334 334 334 332 330 334 334 337 339 338 335 337 341 339 344 349 354 353 351 352 349
305 305 305 305 307 310 310 308 308 309 314 319 316 316 314 313 315 317 319 322 324 325 330 335 336 335 334 334 332 334 331 335 338 337 332 335 340 340 338 345 348 350 347 351 349
305 306 306 307 308 310 309 308 308 310 314 313 313 312 311 313 317 318 319 321 322 324 328 331 335 334 334 333 333 333 331 327 333 332 332 330 337 338 341 339 340 347 350 351 350
304 306 307 307 309 309 308 308 309 309 312 312 310 310 310 314 318 318 319 318 323 323 329 329 332 334 330 332 331 331 325 324 325 330 329 325 329 329 336 338 339 341 347 351 351
303 309 310 311 310 310 308 308 311 311 311 310 309 308 310 311 312 314 315 320 323 322 325 329 331 333 332 328 327 328 325 322 325 325 325 325 327 329 330 331 336 338 345 349 350
303 309 311 313 312 310 308 310 311 310 309 308 307 307 308 309 311 312 314 322 325 326 322 326 328 332 334 330 327 325 325 322 323 325 325 324 324 324 326 329 329 331 338 350 350
306 310 313 311 310 309 309 311 310 308 307 307 308 306 306 310 311 312 315 319 324 322 322 322 322 328 331 332 329 326 324 324 323 324 325 325 325 326 325 326 329 328 330 346 348
308 313 312 312 309 309 310 310 309 308 308 308 309 309 307 311 311 311 314 315 320 320 319 321 322 322 326 329 330 325 325 324 322 322 325 329 329 327 326 326 328 329 330 341 347
308 313 312 311 309 310 308 308 307 306 308 308 309 308 307 307 311 310 313 317 317 317 316 320 323 323 322 325 328 327 324 324 325 324 325 324 327 331 331 328 328 330 330 335 343
309 312 311 310 309 309 309 308 307 307 309 309 307 307 307 309 312 314 315 314 314 314 317 320 322 329 325 324 324 327 325 324 324 325 327 326 327 333 332 329 329 331 332 332 340
310 310 311 310 309 309 310 309 307 308 309 309 309 308 308 309 311 314 313 314 312 313 319 319 322 324 329 326 327 329 327 325 325 327 327 327 330 333 334 332 334 332 337 335 340
308 309 309 310 311 309 310 309 310 309 309 307 308 308 310 309 309 311 311 311 311 315 314 312 319 325 329 330 330 332 327 327 326 326 328 326 332 333 336 337 338 337 337 340 342
308 309 306 306 308 310 310 310 310 309 309 307 307 307 307 309 309 309 309 309 311 311 311 310 318 324 331 331 333 334 333 328 327 327 327 328 327 333 334 336 336 337 336 334 336
307 307 306 307 307 309 310 311 311 310 311 310 307 306 306 307 308 308 307 307 307 310 310 310 315 321 331 332 333 336 334 332 328 328 327 329 329 333 335 337 334 335 333 332 332
Wind_Speed
27 28 28 28 27 27 26 26 28 26 22 22 22 20 18 18 21 14 11 20 19 17 10 15 17 18 22 13 17 10 5 5 6 11 5 3 21 17 18 22 9 10 22 26 34
29 30 31 31 30 30 29 29 29 26 22 23 21 16 16 17 18 20 33 25 24 16 14 17 15 16 13 15 9 6 2 9 9 10 9 9 19 19 21 20 20 25 24 32 33
33 34 35 35 34 34 34 32 28 23 25 25 21 17 14 11 7 9 6 32 28 25 25 19 18 16 16 14 17 13 9 11 17 16 13 18 4 15 23 17 28 30 29 25 29
34 36 38 37 37 37 37 30 25 25 27 21 16 13 8 1 4 4 7 5 34 28 19 23 16 16 14 18 21 11 13 9 9 7 6 8 10 12 24 15 27 29 28 24 24
36 37 38 38 39 40 34 29 28 28 26 17 13 7 2 5 13 10 13 3 30 31 25 17 17 15 19 17 18 18 12 16 11 11 19 29 22 17 23 26 26 25 26 24 20
37 38 40 40 39 38 34 32 31 31 22 15 10 3 3 8 15 16 7 16 25 31 24 20 11 13 10 19 16 15 15 14 13 18 10 16 6 11 25 29 28 27 26 24 22
38 40 41 41 40 37 34 34 37 34 18 13 7 9 8 18 10 15 27 21 26 34 17 27 26 14 16 12 20 18 11 14 18 18 11 10 6 11 27 27 26 27 25 23 24
41 42 43 43 39 35 34 37 39 25 10 11 7 9 9 18 17 28 18 20 25 27 27 24 28 15 17 11 18 17 16 15 22 20 19 15 8 18 25 31 27 25 23 25 26
40 43 45 44 38 34 35 38 30 18 3 1 9 7 11 16 11 23 22 21 28 25 28 24 22 16 16 15 13 10 12 9 13 15 9 7 8 18 21 23 20 23 24 23 26
41 43 45 43 38 31 34 35 21 4 2 3 8 4 9 5 12 21 24 20 15 13 14 16 10 14 14 11 16 10 7 11 12 16 12 7 8 27 25 29 27 15 21 21 23
42 44 46 44 38 28 35 18 9 3 10 11 18 23 40 20 30 19 25 22 14 15 16 17 10 21 22 18 11 11 17 11 12 15 11 15 10 26 24 24 22 15 17 22 21
45 46 46 44 38 24 20 9 12 17 21 19 27 28 36 30 15 15 25 16 18 20 17 12 23 18 14 15 19 18 21 17 15 17 10 16 14 16 25 30 26 24 12 17 20
45 47 45 41 29 17 29 24 29 28 9 19 15 15 19 13 18 28 12 21 16 22 24 23 13 19 19 20 23 22 18 17 14 13 17 16 18 9 24 24 22 26 24 24 25
46 48 45 39 9 28 15 31 31 27 5 9 5 4 0 10 10 27 26 20 18 23 23 26 20 24 26 23 21 19 18 21 20 14 7 11 6 10 16 22 28 29 26 30 25
46 47 45 25 16 8 21 33 31 19 5 12 17 12 34 9 6 13 34 17 26 21 20 25 24 24 26 26 21 15 17 21 22 15 8 11 11 12 12 20 27 25 29 32 28
49 46 42 16 15 18 26 33 23 2 6 9 20 24 29 22 18 21 9 17 15 22 23 24 14 23 25 20 17 16 10 10 16 14 13 14 9 9 15 18 16 27 31 27 28
55 51 27 14 6 19 25 13 4 3 12 12 23 22 23 21 19 23 17 19 19 19 25 18 28 22 17 20 20 18 12 7 9 13 13 8 7 8 6 16 14 22 26 27 29
55 39 11 16 21 20 20 9 5 8 13 19 17 20 16 20 23 28 29 12 21 22 5 20 19 31 23 21 16 22 21 6 8 8 10 7 15 9 11 7 10 13 21 26 29
53 27 14 17 14 16 5 4 5 9 13 15 23 15 22 22 16 26 22 13 16 21 23 13 28 14 28 15 18 17 19 11 3 7 3 4 8 12 20 15 14 9 12 28 26
37 11 10 5 13 11 3 10 16 13 15 15 17 14 20 12 13 16 14 14 24 26 25 27 12 18 20 24 20 20 11 12 9 9 9 11 14 16 16 21 17 12 10 27 27
16 7 4 20 14 4 8 7 14 14 16 11 13 19 16 8 13 15 10 27 23 29 29 18 11 29 14 25 28 11 12 15 5 6 6 4 8 18 22 23 21 16 11 19 25
9 5 18 21 7 5 9 15 15 15 8 9 9 11 15 16 4 8 15 8 25 25 25 17 8 15 29 17 26 18 19 13 11 13 7 6 11 9 8 27 23 18 11 13 23
6 4 16 26 5 6 12 15 16 11 10 8 7 12 14 8 4 8 11 11 14 23 13 15 6 6 18 13 19 28 20 20 8 6 14 7 6 5 10 18 17 11 9 10 16
4 4 5 6 9 14 13 14 15 9 4 3 8 4 14 11 2 2 8 9 19 22 30 23 11 13 12 16 6 11 24 19 13 12 15 11 6 5 8 8 8 9 8 10 12
2 4 6 6 8 17 16 13 14 16 5 8 5 5 8 8 12 5 10 15 17 15 18 15 8 14 15 15 14 18 27 23 22 17 16 12 6 7 2 7 6 7 7 8 8
4 2 3 7 12 13 15 10 15 19 20 13 11 9 6 8 6 10 12 9 6 13 17 19 7 17 7 11 10 8 12 26 23 20 17 12 8 8 8 8 13 10 12 12 11
4 2 1 3 8 9 6 13 20 17 11 21 17 13 13 10 14 10 17 11 12 9 13 18 11 10 5 3 6 6 9 8 21 19 16 13 8 8 5 8 13 11 10 10 10
Wind_Direction
359 356 354 351 348 344 341 337 335 329 319 320 317 314 312 310 299 287 235 228 230 215 176 172 194 210 182 211 205 150 107 270 277 306 349 312 115 133 122 134 155 203 142 145 142
358 355 354 350 346 342 339 336 331 326 321 320 315 310 313 317 302 259 250 246 214 202 198 197 189 203 211 206 229 160 104 191 209 278 291 327 123 134 112 107 101 111 132 146 150
358 356 354 351 346 344 341 336 329 328 328 319 309 298 302 334 282 247 294 228 207 210 222 214 208 199 211 225 229 178 215 200 225 251 254 256 241 148 119 123 140 140 150 151 158
358 356 353 351 348 345 342 340 339 333 331 326 318 299 294 357 243 119 40 209 205 203 197 214 234 206 210 220 229 209 227 209 262 270 161 77 300 243 138 149 146 146 150 153 161
357 355 352 349 345 344 342 338 333 332 330 321 319 300 158 215 245 236 285 286 192 191 199 208 226 212 214 222 231 229 188 233 323 278 173 158 214 94 127 137 142 148 150 159 163
357 353 350 347 345 342 338 333 331 327 325 317 298 211 221 247 246 239 218 161 178 187 201 209 227 223 231 233 237 244 204 150 239 255 197 175 144 134 138 140 147 157 160 168 166
355 352 349 346 344 341 336 331 329 322 314 308 273 204 249 238 243 312 195 183 180 189 203 214 229 241 224 249 243 257 238 202 207 244 200 200 103 144 143 141 153 160 166 172 172
354 351 348 345 342 339 332 332 331 320 293 295 205 193 250 258 270 267 226 182 188 197 213 218 231 249 257 255 260 248 255 224 219 225 236 162 185 148 152 146 159 166 174 177 179
353 350 347 344 341 336 330 334 329 334 312 157 151 209 262 309 225 241 224 193 184 205 206 224 225 233 249 237 255 255 250 230 248 227 224 176 167 172 161 150 156 175 177 184 180
354 351 347 343 340 331 326 333 332 44 101 179 256 296 263 254 226 214 221 232 186 200 188 217 224 230 234 223 223 228 237 250 234 243 205 212 224 162 176 140 154 218 189 186 179
354 353 348 343 338 324 327 336 358 283 329 268 263 276 293 288 321 189 206 211 221 196 203 208 214 224 215 227 237 230 239 226 247 235 192 212 217 163 159 149 165 181 197 185 202
352 351 349 342 339 328 344 356 353 302 300 263 251 253 255 265 283 290 196 195 215 203 200 203 226 224 210 218 235 233 242 249 236 242 198 204 219 170 165 166 163 165 237 238 191
350 348 349 340 339 343 334 352 334 328 292 296 252 249 240 215 234 254 238 204 212 208 202 208 217 219 216 218 221 232 236 245 244 250 239 199 220 220 179 158 145 156 169 238 191
348 345 344 340 352 332 322 334 332 323 307 279 202 311 98 225 256 228 245 208 224 220 212 222 226 200 225 221 220 221 233 248 254 259 251 180 205 233 178 169 167 169 185 204 192
343 341 341 339 292 300 307 325 321 310 317 17 4 5 347 173 260 206 222 229 214 217 210 217 195 226 210 224 218 226 220 233 248 259 271 267 201 228 216 182 189 178 189 188 185
341 336 338 335 311 294 317 319 308 229 251 324 10 353 347 339 318 288 231 233 218 230 235 231 214 220 227 214 225 227 229 244 244 248 255 247 221 229 212 202 183 185 188 183 177
339 336 326 297 255 308 321 319 305 229 333 356 359 346 330 341 344 358 305 219 210 218 232 228 228 219 226 219 204 216 208 227 229 229 235 243 246 215 222 196 182 186 183 177 177
337 339 313 279 277 299 321 310 263 295 344 341 349 329 324 351 340 346 338 279 228 221 213 228 230 217 210 225 200 207 216 181 209 213 239 233 249 254 253 235 235 200 176 174 179
337 337 302 299 262 287 309 288 310 347 358 347 337 343 334 336 353 341 331 317 308 213 227 216 243 196 229 211 213 206 217 211 218 205 208 220 267 268 261 257 241 226 186 177 181
332 304 285 339 314 291 278 261 311 5 357 354 339 326 318 348 338 339 318 303 344 350 339 245 275 227 220 225 238 216 176 213 214 197 221 231 219 229 228 236 240 222 238 188 178
324 317 21 336 329 290 264 306 330 19 5 342 336 318 315 8 358 320 290 313 360 339 333 319 247 249 236 205 217 205 210 201 182 186 187 228 245 229 223 216 220 221 195 186 183
315 308 305 338 319 343 360 353 349 347 10 11 314 336 345 332 296 311 288 290 335 326 321 305 290 236 239 246 210 222 211 195 203 225 233 231 261 333 296 205 202 213 199 176 181
307 276 350 354 351 358 339 335 330 354 19 3 309 324 316 345 340 344 322 298 328 314 327 328 326 268 249 256 258 213 200 212 182 154 230 222 267 310 332 181 183 176 188 194 165
293 315 351 316 6 356 337 318 326 338 358 248 278 325 311 327 133 258 279 304 316 310 313 313 253 249 256 233 232 222 206 202 199 205 228 232 215 330 357 97 148 163 150 173 141
328 354 18 310 332 324 310 316 329 315 215 265 253 318 3 313 317 332 323 319 311 328 319 311 271 267 269 269 278 261 198 194 207 210 205 230 215 177 193 59 98 129 112 133 136
325 5 354 292 304 301 309 327 312 334 332 326 321 309 284 240 173 287 299 309 306 320 319 305 282 321 294 277 288 308 277 195 201 213 223 228 227 208 171 108 83 80 84 77 70
352 47 107 275 304 305 290 323 325 327 323 322 306 319 305 304 315 286 271 260 257 241 299 293 321 328 298 17 338 308 250 256 197 200 209 232 200 167 169 138 129 112 94 90 88